Location: Gollag?dem
(16.8053°N, 80.8024°E)
Time: 13:49:20
(UTC+00:00)

SeaSat 1 - Pass Details

Date: 13 August 2020
Orbit: 744 x 748 km, 108.0° (Epoch: 23 September)

Event Time Altitude Azimuth Distance (km) Brightness Sun altitude
Rises 22:20:18 0° 16° (NNE) 3,184 6.3 -27.7°
Reaches altitude 10° 22:22:35 10° 13° (NNE) 2,260 5.4 -27.2°
Enters shadow 22:26:42 54° 331° (NNW) 905 2.7 -26.3°
